Location: Kellogg
(38.0159°N, 90.0546°W)
Time: 00:39:03
(UTC+00:00)

Courier 1B Rocket - Pass Details

Date: 14 September 2024
Orbit: 920 x 1201 km, 28.3° (Epoch: 14 October)

Event Time Altitude Azimuth Distance (km) Brightness Sun altitude
Rises 03:07:55 0° 263° (W) 3,968 8.8 -33.4°
Reaches altitude 10° 03:11:20 10° 249° (WSW) 3,047 7.9 -33.9°
Enters shadow 03:15:09 21° 220° (SW) 2,366 7.0 -34.5°
